Погода в Белом Ключе

Россия / Ульяновская область     54°13′15″N   48°17′41″E
темп.,
°C
ветер,
м/с
пор.,
м/с
влажн.,
%
обл.,
%
осадки,
мм/ч
давл.,
гПа
погр.,
м
24 мая, вт
вт2401:00+2зюз36825 0.0 1004131
04:00+1юз37845 0.0 1005154
07:00+5юз511745 0.0 1004340
10:00+11зюз58605 0.0 10041215
13:00+12зюз5752100 0.4 10041790
16:00+13з475799 1.1 10051387
19:00+10ссз467789 0.9 1006511
22:00+6ссз239192 1.1 1008139
25 мая, ср
ср2501:00+4ссз2389100 0.0 100882
04:00+4ссз2395100 0.5 1008496
07:00+3ссз4597100 1.7 1009500
10:00+5ссз467888 2.4 1009955
13:00+8сз465899 0.2 10101516
16:00+9зсз5657100 0.7 10111384
19:00+8зсз586997 0.6 1012889
22:00+5з49836 0.7 1013247
26 мая, чт
чт2601:00+3з49875 0.0 1013192
04:00+2зюз37883 0.0 1014141
07:00+5зюз47785 0.0 1014276
10:00+10зюз56576 0.0 10141490
13:00+11юз5750100 0.1 10131927
16:00+12юз695699 0.1 10131696
19:00+11ююз497061 0.0 1012565
22:00+9ю6147777 0.0 1011419
27 мая, пт
пт2701:00+10ююз71574100 0.0 1009402
04:00+10ююз61474100 0.1 1007449
07:00+10ю81885100 0.4 10041005
10:00+12ююз8138594 1.7 10031178
13:00+12юз8148250 0.9 10031053
16:00+15юз7117799 1.9 10031236
19:00+13юз6118594 1.7 1003805
22:00+10юз412945 2.7 1005395
28 мая, сб
сб2801:00+9зюз6139498 0.0 1006478
04:00+8зюз5119548 0.0 1008331
07:00+10юз51089100 0.0 1008328
10:00+14ююз61069100 0.0 1008838
13:00+18ююз8125599 0.0 10071810
16:00+19ююз8146499 0.1 10051437
19:00+15зюз61393100 3.3 1006806
22:00+13юз51190100 5.4 1008626